2019 JF7
ephemeris date magn radius delta ra dec elong phase
Today15 Oct 202528.11.345 AU2.289 AU12h50m+03°53'14.2°10.5°
2019 JF7 - 2025-10-15
astro.vanbuitenen.nl


 
-1 year
-1 month
-1 day
Now
+1 day
+1 month
+1 year

The interactive orbit chart above shows the body's path through the solar system and its position at the given date. Green and blue lines are shown perpendicular to the ecliptic plane: Green if the path is above the ecliptic plane, blue if it is below. (Left-click and drag to rotate the view; Right-click and drag to move the view; Use scroll wheel to zoom in our out.)

The orbital elements of 2019 JF7 are:

            e (Eccentricity)                : 0.2851008
            a (Semimajor axis)              : 1.3973427
            i (Inclination)                 : 17.09715
            Ω (Longitude of ascending node) : 60.56928
            ω (Argument of perihelion)      : 218.96427
            M (Mean anomaly)                : 196.53001
            Epoch                           : 2025 May 05

            L (Longitude of perihelion)     : 98.27371
            B (Latitude of perihelion)      : -10.65374
            P (Orbital period in years)     : 1.65            
        

The light curve chart below shows the estimated development of the minor planet's magnitude.


The all-sky chart below shows the path of the minor planet over the same period as the light curve. The current position is marked yellow.





The following chart shows the path of the minor planet in the next few days. The field of view is optimized for (~10x50) binoculars and finderscopes. A more printer-friendly version of the same chart can be found below.




Ephemerides:
Date       Time       RA (2000)    DEC (2000)    delta   radius  elong  phase   PA    magn
2025-10-15 00:00 UT   12 50 59.2   +03 53 37     2.289    1.345   14.2   10.5   330   28.1 
2025-10-15 13:51 UT   12 52 36.9   +03 40 56     2.286    1.342   14.3   10.6   329   28.1 
2025-10-16 00:00 UT   12 53 48.6   +03 31 38     2.284    1.340   14.3   10.6   329   28.1 
2025-10-17 00:00 UT   12 56 38.5   +03 09 34     2.278    1.336   14.4   10.7   328   28.1 
2025-10-18 00:00 UT   12 59 28.9   +02 47 25     2.273    1.332   14.6   10.8   328   28.1 
2025-10-19 00:00 UT   13 02 20.0   +02 25 12     2.267    1.328   14.7   11.0   327   28.0 
2025-10-20 00:00 UT   13 05 11.6   +02 02 54     2.262    1.323   14.8   11.1   326   28.0 
2025-10-21 00:00 UT   13 08 03.9   +01 40 32     2.256    1.319   14.9   11.2   326   28.0 
2025-10-22 00:00 UT   13 10 56.8   +01 18 06     2.251    1.315   15.0   11.3   325   28.0 
2025-10-23 00:00 UT   13 13 50.3   +00 55 36     2.245    1.310   15.1   11.4   324   28.0 
2025-10-24 00:00 UT   13 16 44.5   +00 33 01     2.239    1.306   15.2   11.5   323   28.0 
2025-10-25 00:00 UT   13 19 39.3   +00 10 24     2.234    1.302   15.3   11.7   323   28.0 


    Terminology:
            
    delta:  distance between minor planet and earth in AU
    radius: distance between minor planet and sun in AU
    magn:   magnitude (brightness) estimate    
    ra:     right ascension in hours (24h = 360deg)
    dec:    declination in degrees
    elong:  elongation in degrees (angle sun-earth-minor planet)    
    phase:  phase angle in degrees (angle sun-minor planet-earth)        
    AU:     Astronomical Unit (mean distance between earth and sun: 149597870.7 km
    

Orbital elements provided by the MPC (Minor Planet Center).
Calculations by a modified version of AAPlus, a C# implementation of the AA+ project by PJ Naughter from the algorithms presented in the book "Astronomical Algorithms" by Jean Meeus.
NGC2000 dso catalog and star labels from VizieR as provided by the Strasbourg astronomical Data Center.
Tycho2 catalog from the ESO archive.